Time,TemperatureF,DewpointF,PressureIn,WindDirection,WindDirectionDegrees,WindSpeedMPH,WindSpeedGustMPH,Humidity,HourlyPrecipIn,Conditions,Clouds,dailyrainin,SoftwareType,DateUTC
2013-02-01 00:02:00,44.1,13.8,30.12,North,0,0.0,0.0,29,0.00,RA,FEW,0.00,WeatherDisplay:10.37,2013-02-01 05:02:00,
2013-02-01 00:03:00,44.1,13.8,30.12,North,0,0.0,0.0,29,0.00,RA,FEW,0.00,WeatherDisplay:10.37,2013-02-01 05:03:00,
2013-02-01 00:04:00,44.1,13.8,30.12,North,0,0.0,0.0,29,0.00,RA,FEW,0.00,WeatherDisplay:10.37,2013-02-01 05:04:00,
2013-02-01 00:05:00,44.2,13.9,30.12,North,0,0.0,0.0,29,0.00,RA,FEW,0.00,WeatherDisplay:10.37,2013-02-01 05:05:00,
2013-02-01 00:10:00,44.2,13.9,30.12,North,0,0.0,0.0,29,0.00,RA,FEW,0.00,WeatherDisplay:10.37,2013-02-01 05:10:00,
2013-02-01 00:15:00,44.2,13.9,30.12,North,0,0.0,0.0,29,0.00,CLR,FEW,0.00,WeatherDisplay:10.37,2013-02-01 05:15:00,
2013-02-01 00:20:00,44.2,13.9,30.12,North,0,0.0,0.0,29,0.00,CLR,FEW,0.00,WeatherDisplay:10.37,2013-02-01 05:20:00,
2013-02-01 00:25:00,44.1,13.8,30.12,North,0,0.0,0.0,29,0.00,CLR,FEW,0.00,WeatherDisplay:10.37,2013-02-01 05:25:00,
2013-02-01 00:30:00,44.1,13.8,30.12,North,0,0.0,0.0,29,0.00,CLR,FEW,0.00,WeatherDisplay:10.37,2013-02-01 05:30:00,
2013-02-01 00:35:00,44.2,13.9,30.12,North,0,0.0,0.0,29,0.00,CLR,FEW,0.00,WeatherDisplay:10.37,2013-02-01 05:35:00,
2013-02-01 00:40:00,44.4,14.1,30.12,North,0,0.0,0.0,29,0.00,CLR,FEW,0.00,WeatherDisplay:10.37,2013-02-01 05:40:00,
2013-02-01 00:45:00,44.4,14.1,30.12,North,0,0.0,0.0,29,0.00,CLR,FEW,0.00,WeatherDisplay:10.37,2013-02-01 05:45:00,
2013-02-01 00:50:00,44.2,13.9,30.12,North,0,0.0,0.0,29,0.00,CLR,FEW,0.00,WeatherDisplay:10.37,2013-02-01 05:50:00,
2013-02-01 00:55:00,44.2,13.9,30.12,North,0,0.0,0.0,29,0.00,CLR,FEW,0.00,WeatherDisplay:10.37,2013-02-01 05:55:00,
2013-02-01 01:00:00,44.1,13.8,30.12,North,0,0.0,0.0,29,0.00,CLR,FEW,0.00,WeatherDisplay:10.37,2013-02-01 06:00:00,
2013-02-01 01:05:00,44.1,13.8,30.12,North,0,0.0,0.0,29,0.00,CLR,FEW,0.00,WeatherDisplay:10.37,2013-02-01 06:05:00,
2013-02-01 01:10:00,44.1,13.8,30.12,North,0,0.0,0.0,29,0.00,CLR,FEW,0.00,WeatherDisplay:10.37,2013-02-01 06:10:00,
2013-02-01 01:16:00,43.9,13.6,30.12,North,0,0.0,0.0,29,0.00,CLR,FEW,0.00,WeatherDisplay:10.37,2013-02-01 06:16:00,
2013-02-01 01:21:00,43.7,13.5,30.12,North,0,0.0,0.0,29,0.00,CLR,FEW,0.00,WeatherDisplay:10.37,2013-02-01 06:21:00,
2013-02-01 01:26:00,43.7,13.5,30.12,North,0,0.0,0.0,29,0.00,CLR,FEW,0.00,WeatherDisplay:10.37,2013-02-01 06:26:00,
2013-02-01 01:31:00,43.7,13.5,30.12,North,0,0.0,0.0,29,0.00,CLR,FEW,0.00,WeatherDisplay:10.37,2013-02-01 06:31:00,
2013-02-01 01:36:00,43.9,13.6,30.12,North,0,0.0,0.0,29,0.00,CLR,FEW,0.00,WeatherDisplay:10.37,2013-02-01 06:36:00,
2013-02-01 01:41:00,43.7,13.5,30.12,North,0,0.0,0.0,29,0.00,CLR,FEW,0.00,WeatherDisplay:10.37,2013-02-01 06:41:00,
2013-02-01 01:46:00,43.7,13.5,30.12,North,0,0.0,0.0,29,0.00,CLR,FEW,0.00,WeatherDisplay:10.37,2013-02-01 06:46:00,
2013-02-01 01:51:00,43.7,13.5,30.12,North,0,0.0,0.0,29,0.00,CLR,FEW,0.00,WeatherDisplay:10.37,2013-02-01 06:51:00,
2013-02-01 01:56:00,43.7,13.5,30.12,North,0,0.0,0.0,29,0.00,CLR,FEW,0.00,WeatherDisplay:10.37,2013-02-01 06:56:00,
2013-02-01 02:01:00,43.7,13.5,30.12,North,0,0.0,0.0,29,0.00,CLR,FEW,0.00,WeatherDisplay:10.37,2013-02-01 07:01:00,
2013-02-01 02:06:00,43.5,13.3,30.12,North,0,0.0,0.0,29,0.00,CLR,FEW,0.00,WeatherDisplay:10.37,2013-02-01 07:06:00,
2013-02-01 02:11:00,43.5,13.3,30.12,North,0,0.0,0.0,29,0.00,CLR,FEW,0.00,WeatherDisplay:10.37,2013-02-01 07:11:00,
2013-02-01 02:16:00,43.5,13.3,30.12,North,0,0.0,0.0,29,0.00,CLR,FEW,0.00,WeatherDisplay:10.37,2013-02-01 07:16:00,
2013-02-01 02:21:00,43.3,13.2,30.12,North,0,0.0,0.0,29,0.00,CLR,FEW,0.00,WeatherDisplay:10.37,2013-02-01 07:21:00,
2013-02-01 02:26:00,43.3,13.2,30.12,North,0,0.0,0.0,29,0.00,CLR,FEW,0.00,WeatherDisplay:10.37,2013-02-01 07:26:00,
2013-02-01 02:31:00,43.2,13.0,30.09,North,0,0.0,0.0,29,0.00,CLR,FEW,0.00,WeatherDisplay:10.37,2013-02-01 07:31:00,
2013-02-01 02:37:00,43.0,12.8,30.09,North,0,0.0,0.0,29,0.00,CLR,FEW,0.00,WeatherDisplay:10.37,2013-02-01 07:37:00,
2013-02-01 02:42:00,43.0,13.6,30.12,North,0,0.0,0.0,30,0.00,CLR,FEW,0.00,WeatherDisplay:10.37,2013-02-01 07:42:00,
2013-02-01 02:47:00,43.0,13.6,30.12,North,0,0.0,0.0,30,0.00,CLR,FEW,0.00,WeatherDisplay:10.37,2013-02-01 07:47:00,
2013-02-01 02:52:00,42.8,13.5,30.12,North,0,0.0,0.0,30,0.00,CLR,FEW,0.00,WeatherDisplay:10.37,2013-02-01 07:52:00,
2013-02-01 02:57:00,42.8,13.5,30.12,North,0,0.0,0.0,30,0.00,CLR,FEW,0.00,WeatherDisplay:10.37,2013-02-01 07:57:00,
2013-02-01 03:02:00,42.8,13.5,30.12,North,0,0.0,0.0,30,0.00,CLR,FEW,0.00,WeatherDisplay:10.37,2013-02-01 08:02:00,
2013-02-01 03:07:00,42.8,13.5,30.12,North,0,0.0,0.0,30,0.00,CLR,FEW,0.00,WeatherDisplay:10.37,2013-02-01 08:07:00,
2013-02-01 03:12:00,42.6,13.3,30.12,North,0,0.0,0.0,30,0.00,CLR,FEW,0.00,WeatherDisplay:10.37,2013-02-01 08:12:00,
2013-02-01 03:17:00,42.4,13.9,30.12,North,0,0.0,0.0,31,0.00,CLR,FEW,0.00,WeatherDisplay:10.37,2013-02-01 08:17:00,
2013-02-01 03:22:00,42.4,13.9,30.12,North,0,0.0,0.0,31,0.00,CLR,FEW,0.00,WeatherDisplay:10.37,2013-02-01 08:22:00,
2013-02-01 03:27:00,42.3,13.7,30.12,North,0,0.0,0.0,31,0.00,CLR,FEW,0.00,WeatherDisplay:10.37,2013-02-01 08:27:00,
2013-02-01 03:32:00,42.1,13.6,30.12,North,0,0.0,0.0,31,0.00,CLR,FEW,0.00,WeatherDisplay:10.37,2013-02-01 08:32:00,
2013-02-01 03:37:00,41.9,14.1,30.12,North,0,0.0,0.0,32,0.00,CLR,FEW,0.00,WeatherDisplay:10.37,2013-02-01 08:37:00,
2013-02-01 03:42:00,41.7,14.0,30.12,North,0,0.0,0.0,32,0.00,CLR,FEW,0.00,WeatherDisplay:10.37,2013-02-01 08:42:00,
2013-02-01 03:47:00,41.5,13.8,30.12,North,0,0.0,0.0,32,0.00,CLR,FEW,0.00,WeatherDisplay:10.37,2013-02-01 08:47:00,
2013-02-01 03:52:00,41.5,13.8,30.12,North,0,0.0,0.0,32,0.00,CLR,FEW,0.00,WeatherDisplay:10.37,2013-02-01 08:52:00,
2013-02-01 03:57:00,41.4,13.7,30.12,North,0,0.0,0.0,32,0.00,CLR,FEW,0.00,WeatherDisplay:10.37,2013-02-01 08:57:00,
2013-02-01 04:02:00,41.2,14.2,30.12,North,0,0.0,0.0,33,0.00,CLR,FEW,0.00,WeatherDisplay:10.37,2013-02-01 09:02:00,
2013-02-01 04:07:00,41.2,14.2,30.12,North,0,0.0,0.0,33,0.00,CLR,FEW,0.00,WeatherDisplay:10.37,2013-02-01 09:07:00,
2013-02-01 04:12:00,41.2,14.2,30.12,North,0,0.0,0.0,33,0.00,CLR,FEW,0.00,WeatherDisplay:10.37,2013-02-01 09:12:00,
2013-02-01 04:17:00,41.0,14.1,30.12,North,0,0.0,0.0,33,0.00,CLR,FEW,0.00,WeatherDisplay:10.37,2013-02-01 09:17:00,
2013-02-01 04:22:00,40.8,14.6,30.12,North,0,0.0,0.0,34,0.00,CLR,FEW,0.00,WeatherDisplay:10.37,2013-02-01 09:22:00,
2013-02-01 04:27:00,40.6,14.4,30.12,North,0,0.0,0.0,34,0.00,CLR,FEW,0.00,WeatherDisplay:10.37,2013-02-01 09:27:00,
2013-02-01 04:32:00,40.6,14.4,30.12,North,0,0.0,0.0,34,0.00,CLR,FEW,0.00,WeatherDisplay:10.37,2013-02-01 09:32:00,
2013-02-01 04:37:00,40.6,14.4,30.12,North,0,0.0,0.0,34,0.00,CLR,FEW,0.00,WeatherDisplay:10.37,2013-02-01 09:37:00,
2013-02-01 04:43:00,40.5,14.3,30.09,North,0,0.0,0.0,34,0.00,CLR,FEW,0.00,WeatherDisplay:10.37,2013-02-01 09:43:00,
2013-02-01 04:48:00,40.5,14.9,30.09,North,0,0.0,0.0,35,0.00,CLR,FEW,0.00,WeatherDisplay:10.37,2013-02-01 09:48:00,
2013-02-01 04:53:00,40.5,14.9,30.09,North,0,0.0,0.0,35,0.00,CLR,FEW,0.00,WeatherDisplay:10.37,2013-02-01 09:53:00,
2013-02-01 04:58:00,40.5,14.9,30.09,North,0,0.0,0.0,35,0.00,CLR,FEW,0.00,WeatherDisplay:10.37,2013-02-01 09:58:00,
2013-02-01 05:03:00,40.6,15.1,30.09,North,0,0.0,0.0,35,0.00,CLR,FEW,0.00,WeatherDisplay:10.37,2013-02-01 10:03:00,
2013-02-01 05:08:00,40.6,15.1,30.09,North,0,0.0,0.0,35,0.00,CLR,FEW,0.00,WeatherDisplay:10.37,2013-02-01 10:08:00,
2013-02-01 05:13:00,40.8,15.2,30.09,North,0,0.0,0.0,35,0.00,CLR,FEW,0.00,WeatherDisplay:10.37,2013-02-01 10:13:00,
2013-02-01 05:18:00,40.8,15.2,30.09,North,0,0.0,0.0,35,0.00,CLR,FEW,0.00,WeatherDisplay:10.37,2013-02-01 10:18:00,
2013-02-01 05:23:00,40.8,14.6,30.09,North,0,0.0,0.0,34,0.00,CLR,FEW,0.00,WeatherDisplay:10.37,2013-02-01 10:23:00,
2013-02-01 05:28:00,40.8,14.6,30.09,North,0,0.0,0.0,34,0.00,CLR,FEW,0.00,WeatherDisplay:10.37,2013-02-01 10:28:00,
2013-02-01 05:33:00,41.0,14.7,30.09,North,0,0.0,0.0,34,0.00,CLR,FEW,0.00,WeatherDisplay:10.37,2013-02-01 10:33:00,
2013-02-01 05:38:00,41.2,14.9,30.09,North,0,0.0,0.0,34,0.00,CLR,FEW,0.00,WeatherDisplay:10.37,2013-02-01 10:38:00,
2013-02-01 05:43:00,41.4,14.4,30.09,North,0,0.0,0.0,33,0.00,CLR,FEW,0.00,WeatherDisplay:10.37,2013-02-01 10:43:00,
2013-02-01 05:48:00,41.5,14.5,30.09,North,0,0.0,0.0,33,0.00,CLR,FEW,0.00,WeatherDisplay:10.37,2013-02-01 10:48:00,
2013-02-01 05:53:00,41.7,14.0,30.09,North,0,0.0,0.0,32,0.00,CLR,FEW,0.00,WeatherDisplay:10.37,2013-02-01 10:53:00,
2013-02-01 05:58:00,42.1,14.3,30.09,North,0,0.0,0.0,32,0.00,CLR,FEW,0.00,WeatherDisplay:10.37,2013-02-01 10:58:00,
2013-02-01 06:03:00,42.3,14.5,30.09,North,0,0.0,0.0,32,0.00,CLR,FEW,0.00,WeatherDisplay:10.37,2013-02-01 11:03:00,
2013-02-01 06:08:00,42.3,14.5,30.09,North,0,0.0,0.0,32,0.00,CLR,FEW,0.00,WeatherDisplay:10.37,2013-02-01 11:08:00,
2013-02-01 06:13:00,42.4,14.6,30.09,North,0,0.0,0.0,32,0.00,CLR,FEW,0.00,WeatherDisplay:10.37,2013-02-01 11:13:00,
2013-02-01 06:18:00,42.4,14.6,30.09,North,0,0.0,0.0,32,0.00,CLR,FEW,0.00,WeatherDisplay:10.37,2013-02-01 11:18:00,
2013-02-01 06:23:00,42.6,14.8,30.09,North,0,0.0,0.0,32,0.00,CLR,FEW,0.00,WeatherDisplay:10.37,2013-02-01 11:23:00,
2013-02-01 06:28:00,42.8,14.2,30.09,North,0,0.0,0.0,31,0.00,CLR,FEW,0.00,WeatherDisplay:10.37,2013-02-01 11:28:00,
2013-02-01 06:33:00,42.8,14.2,30.09,North,0,0.0,0.0,31,0.00,CLR,FEW,0.00,WeatherDisplay:10.37,2013-02-01 11:33:00,
2013-02-01 06:38:00,42.8,14.2,30.09,North,0,0.0,0.0,31,0.00,CLR,FEW,0.00,WeatherDisplay:10.37,2013-02-01 11:38:00,
2013-02-01 06:43:00,43.0,14.4,30.09,North,0,0.0,0.0,31,0.00,CLR,FEW,0.00,WeatherDisplay:10.37,2013-02-01 11:43:00,
2013-02-01 06:48:00,43.2,14.5,30.09,North,0,0.0,0.0,31,0.00,CLR,FEW,0.00,WeatherDisplay:10.37,2013-02-01 11:48:00,
2013-02-01 06:53:00,43.3,14.7,30.09,North,0,0.0,0.0,31,0.00,CLR,FEW,0.00,WeatherDisplay:10.37,2013-02-01 11:53:00,
2013-02-01 06:58:00,43.2,14.5,30.09,North,0,0.0,0.0,31,0.00,CLR,FEW,0.00,WeatherDisplay:10.37,2013-02-01 11:58:00,
2013-02-01 07:03:00,43.2,14.5,30.09,North,0,0.0,0.0,31,0.00,CLR,FEW,0.00,WeatherDisplay:10.37,2013-02-01 12:03:00,
2013-02-01 07:08:00,43.2,14.5,30.09,North,0,0.0,0.0,31,0.00,CLR,FEW,0.00,WeatherDisplay:10.37,2013-02-01 12:08:00,
2013-02-01 07:13:00,43.2,14.5,30.09,North,0,0.0,0.0,31,0.00,CLR,FEW,0.00,WeatherDisplay:10.37,2013-02-01 12:13:00,
2013-02-01 07:18:00,43.5,14.8,30.09,North,0,0.0,0.0,31,0.00,CLR,FEW,0.00,WeatherDisplay:10.37,2013-02-01 12:18:00,
2013-02-01 07:23:00,43.7,15.0,30.09,North,0,0.0,0.0,31,0.00,CLR,FEW,0.00,WeatherDisplay:10.37,2013-02-01 12:23:00,
2013-02-01 07:28:00,43.7,14.2,30.09,North,0,0.0,0.0,30,0.00,CLR,FEW,0.00,WeatherDisplay:10.37,2013-02-01 12:28:00,
2013-02-01 07:33:00,43.9,14.4,30.09,North,0,0.0,0.0,30,0.00,CLR,FEW,0.00,WeatherDisplay:10.37,2013-02-01 12:33:00,
2013-02-01 07:38:00,44.1,14.6,30.09,North,0,0.0,0.0,30,0.00,CLR,FEW,0.00,WeatherDisplay:10.37,2013-02-01 12:38:00,
2013-02-01 07:43:00,44.1,14.6,30.09,North,0,0.0,0.0,30,0.00,CLR,FEW,0.00,WeatherDisplay:10.37,2013-02-01 12:43:00,
2013-02-01 07:48:00,44.2,14.7,30.09,North,0,0.0,0.0,30,0.00,CLR,FEW,0.00,WeatherDisplay:10.37,2013-02-01 12:48:00,
2013-02-01 07:54:00,44.4,14.9,30.09,North,0,0.0,0.0,30,0.00,CLR,FEW,0.00,WeatherDisplay:10.37,2013-02-01 12:54:00,
2013-02-01 07:59:00,44.6,14.3,30.09,North,0,0.0,0.0,29,0.00,CLR,FEW,0.00,WeatherDisplay:10.37,2013-02-01 12:59:00,
2013-02-01 08:04:00,45.0,14.6,30.09,North,0,0.0,0.0,29,0.00,CLR,FEW,0.00,WeatherDisplay:10.37,2013-02-01 13:04:00,
2013-02-01 08:09:00,45.9,15.3,30.09,North,0,0.0,0.0,29,0.00,CLR,FEW,0.00,WeatherDisplay:10.37,2013-02-01 13:09:00,
2013-02-01 08:14:00,46.6,15.2,30.12,North,0,0.0,0.0,28,0.00,CLR,FEW,0.00,WeatherDisplay:10.37,2013-02-01 13:14:00,
2013-02-01 08:19:00,47.3,15.8,30.12,North,0,0.0,0.0,28,0.00,CLR,FEW,0.00,WeatherDisplay:10.37,2013-02-01 13:19:00,
2013-02-01 08:24:00,47.7,16.1,30.12,North,0,0.0,0.0,28,0.00,CLR,FEW,0.00,WeatherDisplay:10.37,2013-02-01 13:24:00,
2013-02-01 08:29:00,47.8,16.3,30.12,North,0,0.0,0.0,28,0.00,CLR,FEW,0.00,WeatherDisplay:10.37,2013-02-01 13:29:00,
2013-02-01 08:34:00,48.0,16.4,30.12,North,0,0.0,0.0,28,0.00,CLR,FEW,0.00,WeatherDisplay:10.37,2013-02-01 13:34:00,
2013-02-01 08:39:00,48.0,16.4,30.12,North,0,0.0,0.0,28,0.00,CLR,FEW,0.00,WeatherDisplay:10.37,2013-02-01 13:39:00,
2013-02-01 08:44:00,48.2,15.7,30.12,North,0,0.0,0.0,27,0.00,CLR,FEW,0.00,WeatherDisplay:10.37,2013-02-01 13:44:00,
2013-02-01 08:49:00,48.4,15.9,30.12,North,0,0.0,0.0,27,0.00,CLR,FEW,0.00,WeatherDisplay:10.37,2013-02-01 13:49:00,
2013-02-01 08:54:00,48.7,16.2,30.12,North,0,0.0,0.0,27,0.00,CLR,FEW,0.00,WeatherDisplay:10.37,2013-02-01 13:54:00,
2013-02-01 08:59:00,49.3,16.7,30.12,North,0,0.0,0.0,27,0.00,CLR,FEW,0.00,WeatherDisplay:10.37,2013-02-01 13:59:00,
2013-02-01 09:04:00,49.6,17.0,30.12,North,0,0.0,0.0,27,0.00,CLR,FEW,0.00,WeatherDisplay:10.37,2013-02-01 14:04:00,
2013-02-01 09:09:00,50.2,17.4,30.12,North,0,0.0,0.0,27,0.00,CLR,FEW,0.00,WeatherDisplay:10.37,2013-02-01 14:09:00,
2013-02-01 09:14:00,50.5,17.7,30.12,North,0,0.0,0.0,27,0.00,CLR,FEW,0.00,WeatherDisplay:10.37,2013-02-01 14:14:00,
2013-02-01 09:19:00,51.1,17.3,30.12,North,0,0.0,0.0,26,0.00,CLR,FEW,0.00,WeatherDisplay:10.37,2013-02-01 14:19:00,
2013-02-01 09:24:00,51.3,17.5,30.12,North,0,0.0,0.0,26,0.00,CLR,FEW,0.00,WeatherDisplay:10.37,2013-02-01 14:24:00,
2013-02-01 09:30:00,51.6,17.8,30.12,North,0,0.0,0.0,26,0.00,CLR,FEW,0.00,WeatherDisplay:10.37,2013-02-01 14:30:00,
2013-02-01 09:35:00,51.8,18.0,30.12,North,0,0.0,0.0,26,0.00,CLR,FEW,0.00,WeatherDisplay:10.37,2013-02-01 14:35:00,
2013-02-01 09:40:00,52.3,18.4,30.12,North,0,0.0,0.0,26,0.00,CLR,FEW,0.00,WeatherDisplay:10.37,2013-02-01 14:40:00,
2013-02-01 09:45:00,52.5,18.6,30.12,North,0,0.0,0.0,26,0.00,CLR,FEW,0.00,WeatherDisplay:10.37,2013-02-01 14:45:00,
2013-02-01 09:50:00,52.5,18.6,30.12,North,0,0.0,0.0,26,0.00,CLR,FEW,0.00,WeatherDisplay:10.37,2013-02-01 14:50:00,
2013-02-01 09:56:00,52.9,18.9,30.12,North,0,0.0,0.0,26,0.00,CLR,FEW,0.00,WeatherDisplay:10.37,2013-02-01 14:56:00,
2013-02-01 10:01:00,53.4,19.3,30.12,North,0,0.0,0.0,26,0.00,CLR,FEW,0.00,WeatherDisplay:10.37,2013-02-01 15:01:00,
2013-02-01 10:06:00,53.6,19.5,30.12,North,0,0.0,0.0,26,0.00,CLR,FEW,0.00,WeatherDisplay:10.37,2013-02-01 15:06:00,
2013-02-01 10:11:00,53.8,19.7,30.12,North,0,0.0,0.0,26,0.00,CLR,FEW,0.00,WeatherDisplay:10.37,2013-02-01 15:11:00,
2013-02-01 10:16:00,54.3,20.1,30.12,North,0,0.0,0.0,26,0.00,CLR,FEW,0.00,WeatherDisplay:10.37,2013-02-01 15:16:00,
2013-02-01 10:21:00,55.2,20.9,30.12,North,0,0.0,0.0,26,0.00,CLR,FEW,0.00,WeatherDisplay:10.37,2013-02-01 15:21:00,
2013-02-01 10:26:00,55.6,20.3,30.12,North,0,0.0,0.0,25,0.00,CLR,FEW,0.00,WeatherDisplay:10.37,2013-02-01 15:26:00,
2013-02-01 10:31:00,55.9,20.6,30.12,North,0,0.0,0.0,25,0.00,CLR,FEW,0.00,WeatherDisplay:10.37,2013-02-01 15:31:00,
2013-02-01 10:36:00,56.3,20.9,30.12,North,0,0.0,0.0,25,0.00,CLR,FEW,0.00,WeatherDisplay:10.37,2013-02-01 15:36:00,
2013-02-01 10:41:00,56.5,21.0,30.12,North,0,0.0,0.0,25,0.00,CLR,FEW,0.00,WeatherDisplay:10.37,2013-02-01 15:41:00,
2013-02-01 10:46:00,56.7,21.2,30.12,North,0,0.0,0.0,25,0.00,CLR,FEW,0.00,WeatherDisplay:10.37,2013-02-01 15:46:00,
2013-02-01 10:51:00,56.5,18.0,30.12,North,0,0.0,0.0,22,0.00,CLR,FEW,0.00,WeatherDisplay:10.37,2013-02-01 15:51:00,
2013-02-01 10:56:00,56.8,18.3,30.12,North,0,0.0,0.0,22,0.00,CLR,FEW,0.00,WeatherDisplay:10.37,2013-02-01 15:56:00,
2013-02-01 11:01:00,56.8,18.3,30.12,North,0,0.0,0.0,22,0.00,CLR,FEW,0.00,WeatherDisplay:10.37,2013-02-01 16:01:00,
2013-02-01 11:06:00,56.7,18.2,30.12,North,0,0.0,0.0,22,0.00,CLR,FEW,0.00,WeatherDisplay:10.37,2013-02-01 16:06:00,
2013-02-01 11:11:00,56.7,18.2,30.12,North,0,0.0,0.0,22,0.00,CLR,FEW,0.00,WeatherDisplay:10.37,2013-02-01 16:11:00,
2013-02-01 11:16:00,56.8,18.3,30.12,North,0,0.0,0.0,22,0.00,CLR,FEW,0.00,WeatherDisplay:10.37,2013-02-01 16:16:00,
2013-02-01 11:21:00,57.2,18.6,30.12,North,0,0.0,0.0,22,0.00,CLR,FEW,0.00,WeatherDisplay:10.37,2013-02-01 16:21:00,
2013-02-01 11:26:00,57.6,15.5,30.12,North,0,0.0,0.0,19,0.00,CLR,FEW,0.00,WeatherDisplay:10.37,2013-02-01 16:26:00,
2013-02-01 11:31:00,57.6,15.5,30.12,North,0,0.0,0.0,19,0.00,CLR,FEW,0.00,WeatherDisplay:10.37,2013-02-01 16:31:00,
2013-02-01 11:36:00,57.2,15.2,30.12,North,0,0.0,0.0,19,0.00,CLR,FEW,0.00,WeatherDisplay:10.37,2013-02-01 16:36:00,
2013-02-01 11:41:00,57.2,15.2,30.12,North,0,0.0,0.0,19,0.00,CLR,FEW,0.00,WeatherDisplay:10.37,2013-02-01 16:41:00,
2013-02-01 11:46:00,57.0,16.3,30.15,North,0,0.0,0.0,20,0.00,CLR,FEW,0.00,WeatherDisplay:10.37,2013-02-01 16:46:00,
2013-02-01 11:51:00,56.7,16.0,30.15,North,0,0.0,0.0,20,0.00,CLR,FEW,0.00,WeatherDisplay:10.37,2013-02-01 16:51:00,
2013-02-01 11:56:00,56.5,15.8,30.15,North,0,0.0,0.0,20,0.00,CLR,FEW,0.00,WeatherDisplay:10.37,2013-02-01 16:56:00,
2013-02-01 12:01:00,56.5,15.8,30.15,North,0,0.0,0.0,20,0.00,CLR,FEW,0.00,WeatherDisplay:10.37,2013-02-01 17:01:00,
2013-02-01 12:06:00,56.8,16.1,30.15,North,0,0.0,0.0,20,0.00,CLR,FEW,0.00,WeatherDisplay:10.37,2013-02-01 17:06:00,
2013-02-01 12:11:00,57.0,16.3,30.15,North,0,0.0,0.0,20,0.00,CLR,FEW,0.00,WeatherDisplay:10.37,2013-02-01 17:11:00,
2013-02-01 12:16:00,57.0,16.3,30.15,North,0,0.0,0.0,20,0.00,CLR,FEW,0.00,WeatherDisplay:10.37,2013-02-01 17:16:00,
2013-02-01 12:21:00,57.0,16.3,30.15,North,0,0.0,0.0,20,0.00,CLR,FEW,0.00,WeatherDisplay:10.37,2013-02-01 17:21:00,
2013-02-01 12:26:00,56.8,16.1,30.15,North,0,0.0,0.0,20,0.00,CLR,FEW,0.00,WeatherDisplay:10.37,2013-02-01 17:26:00,
2013-02-01 12:31:00,56.7,16.0,30.15,North,0,0.0,0.0,20,0.00,CLR,FEW,0.00,WeatherDisplay:10.37,2013-02-01 17:31:00,
2013-02-01 12:36:00,56.8,16.1,30.15,North,0,0.0,0.0,20,0.00,CLR,FEW,0.00,WeatherDisplay:10.37,2013-02-01 17:36:00,
2013-02-01 12:42:00,57.2,15.2,30.15,North,0,0.0,0.0,19,0.00,CLR,FEW,0.00,WeatherDisplay:10.37,2013-02-01 17:42:00,
2013-02-01 12:47:00,57.0,16.3,30.15,North,0,0.0,0.0,20,0.00,CLR,FEW,0.00,WeatherDisplay:10.37,2013-02-01 17:47:00,
2013-02-01 12:52:00,57.2,15.2,30.15,North,0,0.0,0.0,19,0.00,CLR,FEW,0.00,WeatherDisplay:10.37,2013-02-01 17:52:00,
2013-02-01 12:57:00,57.2,15.2,30.15,North,0,0.0,0.0,19,0.00,CLR,FEW,0.00,WeatherDisplay:10.37,2013-02-01 17:57:00,
2013-02-01 13:02:00,57.2,15.2,30.15,North,0,0.0,0.0,19,0.00,CLR,FEW,0.00,WeatherDisplay:10.37,2013-02-01 18:02:00,
2013-02-01 13:07:00,56.8,16.1,30.15,North,0,0.0,0.0,20,0.00,CLR,FEW,0.00,WeatherDisplay:10.37,2013-02-01 18:07:00,
2013-02-01 13:12:00,56.8,16.1,30.15,North,0,0.0,0.0,20,0.00,CLR,FEW,0.00,WeatherDisplay:10.37,2013-02-01 18:12:00,
2013-02-01 13:17:00,56.7,16.0,30.15,North,0,0.0,0.0,20,0.00,CLR,FEW,0.00,WeatherDisplay:10.37,2013-02-01 18:17:00,
2013-02-01 13:22:00,56.5,15.8,30.15,North,0,0.0,0.0,20,0.00,CLR,FEW,0.00,WeatherDisplay:10.37,2013-02-01 18:22:00,
2013-02-01 13:27:00,56.3,15.7,30.15,North,0,0.0,0.0,20,0.00,CLR,FEW,0.00,WeatherDisplay:10.37,2013-02-01 18:27:00,
2013-02-01 13:32:00,56.1,15.5,30.15,North,0,0.0,0.0,20,0.00,CLR,FEW,0.00,WeatherDisplay:10.37,2013-02-01 18:32:00,
2013-02-01 13:37:00,55.8,15.2,30.15,North,0,0.0,0.0,20,0.00,CLR,FEW,0.00,WeatherDisplay:10.37,2013-02-01 18:37:00,
2013-02-01 13:42:00,54.3,14.0,30.15,North,0,0.0,0.0,20,0.00,CLR,FEW,0.00,WeatherDisplay:10.37,2013-02-01 18:42:00,
2013-02-01 13:47:00,54.5,14.2,30.15,North,0,0.0,0.0,20,0.00,CLR,FEW,0.00,WeatherDisplay:10.37,2013-02-01 18:47:00,
2013-02-01 13:53:00,55.2,14.8,30.15,North,0,0.0,0.0,20,0.00,CLR,FEW,0.00,WeatherDisplay:10.37,2013-02-01 18:53:00,
2013-02-01 13:58:00,55.2,14.8,30.15,North,0,0.0,0.0,20,0.00,CLR,FEW,0.00,WeatherDisplay:10.37,2013-02-01 18:58:00,
2013-02-01 14:03:00,55.0,14.6,30.15,North,0,0.0,0.0,20,0.00,CLR,FEW,0.00,WeatherDisplay:10.37,2013-02-01 19:03:00,
2013-02-01 14:08:00,54.7,14.3,30.15,North,0,0.0,0.0,20,0.00,CLR,FEW,0.00,WeatherDisplay:10.37,2013-02-01 19:08:00,
2013-02-01 14:13:00,54.5,14.2,30.15,North,0,0.0,0.0,20,0.00,CLR,FEW,0.00,WeatherDisplay:10.37,2013-02-01 19:13:00,
2013-02-01 14:18:00,54.7,14.3,30.15,North,0,0.0,0.0,20,0.00,CLR,FEW,0.00,WeatherDisplay:10.37,2013-02-01 19:18:00,
2013-02-01 14:23:00,54.7,14.3,30.15,North,0,0.0,0.0,20,0.00,CLR,FEW,0.00,WeatherDisplay:10.37,2013-02-01 19:23:00,
2013-02-01 14:28:00,54.5,14.2,30.18,North,0,0.0,0.0,20,0.00,CLR,FEW,0.00,WeatherDisplay:10.37,2013-02-01 19:28:00,
2013-02-01 14:33:00,54.3,14.0,30.18,North,0,0.0,0.0,20,0.00,CLR,FEW,0.00,WeatherDisplay:10.37,2013-02-01 19:33:00,
2013-02-01 14:38:00,54.0,11.3,30.18,North,0,0.0,0.0,18,0.00,CLR,FEW,0.00,WeatherDisplay:10.37,2013-02-01 19:38:00,
2013-02-01 14:43:00,53.8,11.2,30.18,North,0,0.0,0.0,18,0.00,CLR,FEW,0.00,WeatherDisplay:10.37,2013-02-01 19:43:00,
2013-02-01 14:48:00,53.8,11.2,30.18,North,0,0.0,0.0,18,0.00,CLR,FEW,0.00,WeatherDisplay:10.37,2013-02-01 19:48:00,
2013-02-01 14:53:00,53.2,10.8,30.18,North,0,0.0,0.0,18,0.00,CLR,FEW,0.00,WeatherDisplay:10.37,2013-02-01 19:53:00,
2013-02-01 14:58:00,53.1,10.6,30.18,North,0,0.0,0.0,18,0.00,CLR,FEW,0.00,WeatherDisplay:10.37,2013-02-01 19:58:00,
2013-02-01 15:03:00,52.7,10.3,30.18,North,0,0.0,0.0,18,0.00,CLR,FEW,0.00,WeatherDisplay:10.37,2013-02-01 20:03:00,
2013-02-01 15:08:00,52.9,10.5,30.18,North,0,0.0,0.0,18,0.00,CLR,FEW,0.00,WeatherDisplay:10.37,2013-02-01 20:08:00,
2013-02-01 15:13:00,53.2,10.8,30.18,North,0,0.0,0.0,18,0.00,CLR,FEW,0.00,WeatherDisplay:10.37,2013-02-01 20:13:00,
2013-02-01 15:18:00,53.1,10.6,30.18,North,0,0.0,0.0,18,0.00,CLR,FEW,0.00,WeatherDisplay:10.37,2013-02-01 20:18:00,
2013-02-01 15:23:00,53.1,10.6,30.18,North,0,0.0,0.0,18,0.00,CLR,FEW,0.00,WeatherDisplay:10.37,2013-02-01 20:23:00,
2013-02-01 15:28:00,52.3,7.4,30.21,North,0,0.0,0.0,16,0.00,CLR,FEW,0.00,WeatherDisplay:10.37,2013-02-01 20:28:00,
2013-02-01 15:33:00,52.2,7.2,30.21,North,0,0.0,0.0,16,0.00,CLR,FEW,0.00,WeatherDisplay:10.37,2013-02-01 20:33:00,
2013-02-01 15:38:00,52.2,7.2,30.21,North,0,0.0,0.0,16,0.00,CLR,FEW,0.00,WeatherDisplay:10.37,2013-02-01 20:38:00,
2013-02-01 15:43:00,52.0,7.1,30.21,North,0,0.0,0.0,16,0.00,CLR,FEW,0.00,WeatherDisplay:10.37,2013-02-01 20:43:00,
2013-02-01 15:48:00,51.8,6.9,30.21,North,0,0.0,0.0,16,0.00,CLR,FEW,0.00,WeatherDisplay:10.37,2013-02-01 20:48:00,
2013-02-01 15:53:00,51.6,6.8,30.21,North,0,0.0,0.0,16,0.00,CLR,FEW,0.00,WeatherDisplay:10.37,2013-02-01 20:53:00,
2013-02-01 15:58:00,51.4,6.7,30.21,North,0,0.0,0.0,16,0.00,CLR,FEW,0.00,WeatherDisplay:10.37,2013-02-01 20:58:00,
2013-02-01 16:03:00,51.3,6.5,30.21,North,0,0.0,0.0,16,0.00,CLR,FEW,0.00,WeatherDisplay:10.37,2013-02-01 21:03:00,
2013-02-01 16:08:00,50.9,6.2,30.21,North,0,0.0,0.0,16,0.00,CLR,FEW,0.00,WeatherDisplay:10.37,2013-02-01 21:08:00,
2013-02-01 16:13:00,50.7,6.1,30.21,North,0,0.0,0.0,16,0.00,CLR,FEW,0.00,WeatherDisplay:10.37,2013-02-01 21:13:00,
2013-02-01 16:18:00,50.7,6.1,30.21,North,0,0.0,0.0,16,0.00,CLR,FEW,0.00,WeatherDisplay:10.37,2013-02-01 21:18:00,
2013-02-01 16:23:00,50.5,5.9,30.21,North,0,0.0,0.0,16,0.00,CLR,FEW,0.00,WeatherDisplay:10.37,2013-02-01 21:23:00,
2013-02-01 16:28:00,50.4,5.8,30.24,North,0,0.0,0.0,16,0.00,CLR,FEW,0.00,WeatherDisplay:10.37,2013-02-01 21:28:00,
2013-02-01 16:33:00,50.4,5.8,30.24,North,0,0.0,0.0,16,0.00,CLR,FEW,0.00,WeatherDisplay:10.37,2013-02-01 21:33:00,
2013-02-01 16:38:00,50.2,5.6,30.24,North,0,0.0,0.0,16,0.00,CLR,FEW,0.00,WeatherDisplay:10.37,2013-02-01 21:38:00,
2013-02-01 16:43:00,50.2,5.6,30.24,North,0,0.0,0.0,16,0.00,CLR,FEW,0.00,WeatherDisplay:10.37,2013-02-01 21:43:00,
2013-02-01 16:48:00,49.8,5.3,30.24,North,0,0.0,0.0,16,0.00,CLR,FEW,0.00,WeatherDisplay:10.37,2013-02-01 21:48:00,
2013-02-01 16:53:00,49.6,5.2,30.24,North,0,0.0,0.0,16,0.00,CLR,FEW,0.00,WeatherDisplay:10.37,2013-02-01 21:53:00,
2013-02-01 16:58:00,49.6,5.2,30.24,North,0,0.0,0.0,16,0.00,CLR,FEW,0.00,WeatherDisplay:10.37,2013-02-01 21:58:00,
2013-02-01 17:03:00,49.3,4.9,30.24,North,0,0.0,0.0,16,0.00,CLR,FEW,0.00,WeatherDisplay:10.37,2013-02-01 22:03:00,
2013-02-01 17:08:00,49.1,4.8,30.24,North,0,0.0,0.0,16,0.00,CLR,FEW,0.00,WeatherDisplay:10.37,2013-02-01 22:08:00,
2013-02-01 17:13:00,48.7,4.5,30.24,North,0,0.0,0.0,16,0.00,CLR,FEW,0.00,WeatherDisplay:10.37,2013-02-01 22:13:00,
2013-02-01 17:18:00,48.6,4.3,30.24,North,0,0.0,0.0,16,0.00,CLR,FEW,0.00,WeatherDisplay:10.37,2013-02-01 22:18:00,
2013-02-01 17:23:00,48.2,4.0,30.24,North,0,0.0,0.0,16,0.00,CLR,FEW,0.00,WeatherDisplay:10.37,2013-02-01 22:23:00,
2013-02-01 17:28:00,47.8,5.0,30.24,North,0,0.0,0.0,17,0.00,CLR,FEW,0.00,WeatherDisplay:10.37,2013-02-01 22:28:00,
2013-02-01 17:33:00,47.5,4.8,30.24,North,0,0.0,0.0,17,0.00,CLR,FEW,0.00,WeatherDisplay:10.37,2013-02-01 22:33:00,
2013-02-01 17:38:00,46.9,4.3,30.24,North,0,0.0,0.0,17,0.00,CLR,FEW,0.00,WeatherDisplay:10.37,2013-02-01 22:38:00,
2013-02-01 17:43:00,46.6,4.0,30.24,North,0,0.0,0.0,17,0.00,CLR,FEW,0.00,WeatherDisplay:10.37,2013-02-01 22:43:00,
2013-02-01 17:48:00,46.2,3.7,30.24,North,0,0.0,0.0,17,0.00,CLR,FEW,0.00,WeatherDisplay:10.37,2013-02-01 22:48:00,
2013-02-01 17:53:00,45.9,3.4,30.24,North,0,0.0,0.0,17,0.00,CLR,FEW,0.00,WeatherDisplay:10.37,2013-02-01 22:53:00,
2013-02-01 17:58:00,45.5,3.1,30.27,North,0,0.0,0.0,17,0.00,CLR,FEW,0.00,WeatherDisplay:10.37,2013-02-01 22:58:00,
2013-02-01 18:03:00,45.1,2.8,30.27,North,0,0.0,0.0,17,0.00,CLR,FEW,0.00,WeatherDisplay:10.37,2013-02-01 23:03:00,
2013-02-01 18:08:00,45.1,2.8,30.27,North,0,0.0,0.0,17,0.00,CLR,FEW,0.00,WeatherDisplay:10.37,2013-02-01 23:08:00,
2013-02-01 18:13:00,44.8,2.5,30.27,North,0,0.0,0.0,17,0.00,CLR,FEW,0.00,WeatherDisplay:10.37,2013-02-01 23:13:00,
2013-02-01 18:18:00,44.4,3.5,30.27,North,0,0.0,0.0,18,0.00,CLR,FEW,0.00,WeatherDisplay:10.37,2013-02-01 23:18:00,
2013-02-01 18:23:00,43.9,3.0,30.27,North,0,0.0,0.0,18,0.00,CLR,FEW,0.00,WeatherDisplay:10.37,2013-02-01 23:23:00,
2013-02-01 18:28:00,43.5,2.7,30.27,North,0,0.0,0.0,18,0.00,CLR,FEW,0.00,WeatherDisplay:10.37,2013-02-01 23:28:00,
2013-02-01 18:33:00,43.2,2.4,30.27,North,0,0.0,0.0,18,0.00,CLR,FEW,0.00,WeatherDisplay:10.37,2013-02-01 23:33:00,
2013-02-01 18:38:00,42.8,2.1,30.27,North,0,0.0,0.0,18,0.00,CLR,FEW,0.00,WeatherDisplay:10.37,2013-02-01 23:38:00,
2013-02-01 18:43:00,42.6,2.0,30.27,North,0,0.0,0.0,18,0.00,CLR,FEW,0.00,WeatherDisplay:10.37,2013-02-01 23:43:00,
2013-02-01 18:48:00,42.4,1.8,30.27,North,0,0.0,0.0,18,0.00,CLR,FEW,0.00,WeatherDisplay:10.37,2013-02-01 23:48:00,
2013-02-01 18:53:00,42.4,1.8,30.27,North,0,0.0,0.0,18,0.00,CLR,FEW,0.00,WeatherDisplay:10.37,2013-02-01 23:53:00,
2013-02-01 18:58:00,42.4,1.8,30.30,North,0,0.0,0.0,18,0.00,CLR,FEW,0.00,WeatherDisplay:10.37,2013-02-01 23:58:00,
2013-02-01 19:03:00,42.1,1.5,30.30,North,0,0.0,0.0,18,0.00,CLR,FEW,0.00,WeatherDisplay:10.37,2013-02-02 00:03:00,
2013-02-01 19:08:00,41.7,1.2,30.30,North,0,0.0,0.0,18,0.00,CLR,FEW,0.00,WeatherDisplay:10.37,2013-02-02 00:08:00,
2013-02-01 19:13:00,41.4,0.9,30.30,North,0,0.0,0.0,18,0.00,CLR,FEW,0.00,WeatherDisplay:10.37,2013-02-02 00:13:00,
2013-02-01 19:18:00,41.0,0.6,30.30,North,0,0.0,0.0,18,0.00,CLR,FEW,0.00,WeatherDisplay:10.37,2013-02-02 00:18:00,
2013-02-01 19:23:00,40.6,0.4,30.30,North,0,0.0,0.0,18,0.00,CLR,FEW,0.00,WeatherDisplay:10.37,2013-02-02 00:23:00,
2013-02-01 19:28:00,40.5,0.2,30.30,North,0,0.0,0.0,18,0.00,CLR,FEW,0.00,WeatherDisplay:10.37,2013-02-02 00:28:00,
2013-02-01 19:33:00,40.3,0.1,30.30,North,0,0.0,0.0,18,0.00,CLR,FEW,0.00,WeatherDisplay:10.37,2013-02-02 00:33:00,
2013-02-01 19:38:00,39.9,-0.2,30.30,North,0,0.0,0.0,18,0.00,CLR,FEW,0.00,WeatherDisplay:10.37,2013-02-02 00:38:00,
2013-02-01 19:43:00,39.7,-0.4,30.30,North,0,0.0,0.0,18,0.00,CLR,FEW,0.00,WeatherDisplay:10.37,2013-02-02 00:43:00,
2013-02-01 19:48:00,39.6,-0.5,30.30,North,0,0.0,0.0,18,0.00,CLR,FEW,0.00,WeatherDisplay:10.37,2013-02-02 00:48:00,
2013-02-01 19:53:00,39.4,-0.7,30.30,North,0,0.0,0.0,18,0.00,CLR,FEW,0.00,WeatherDisplay:10.37,2013-02-02 00:53:00,
2013-02-01 19:58:00,39.4,-0.7,30.30,North,0,0.0,0.0,18,0.00,CLR,FEW,0.00,WeatherDisplay:10.37,2013-02-02 00:58:00,
2013-02-01 20:03:00,39.2,-0.8,30.30,North,0,0.0,0.0,18,0.00,CLR,FEW,0.00,WeatherDisplay:10.37,2013-02-02 01:03:00,
2013-02-01 20:08:00,38.8,0.0,30.30,North,0,0.0,0.0,19,0.00,CLR,FEW,0.00,WeatherDisplay:10.37,2013-02-02 01:08:00,
2013-02-01 20:13:00,38.7,-0.1,30.33,North,0,0.0,0.0,19,0.00,CLR,FEW,0.00,WeatherDisplay:10.37,2013-02-02 01:13:00,
2013-02-01 20:18:00,38.3,-0.4,30.33,North,0,0.0,0.0,19,0.00,CLR,FEW,0.00,WeatherDisplay:10.37,2013-02-02 01:18:00,
2013-02-01 20:23:00,38.1,-0.6,30.33,North,0,0.0,0.0,19,0.00,CLR,FEW,0.00,WeatherDisplay:10.37,2013-02-02 01:23:00,
2013-02-01 20:28:00,37.8,-0.9,30.33,North,0,0.0,0.0,19,0.00,CLR,FEW,0.00,WeatherDisplay:10.37,2013-02-02 01:28:00,
2013-02-01 20:33:00,37.4,-1.2,30.33,North,0,0.0,0.0,19,0.00,CLR,FEW,0.00,WeatherDisplay:10.37,2013-02-02 01:33:00,
2013-02-01 20:38:00,37.2,-1.3,30.33,North,0,0.0,0.0,19,0.00,CLR,FEW,0.00,WeatherDisplay:10.37,2013-02-02 01:38:00,
2013-02-01 20:43:00,36.9,-1.6,30.33,North,0,0.0,0.0,19,0.00,CLR,FEW,0.00,WeatherDisplay:10.37,2013-02-02 01:43:00,
2013-02-01 20:48:00,36.5,-1.9,30.33,North,0,0.0,0.0,19,0.00,CLR,FEW,0.00,WeatherDisplay:10.37,2013-02-02 01:48:00,
2013-02-01 20:53:00,36.3,-2.1,30.33,North,0,0.0,0.0,19,0.00,CLR,FEW,0.00,WeatherDisplay:10.37,2013-02-02 01:53:00,
2013-02-01 20:58:00,36.3,-2.1,30.33,North,0,0.0,0.0,19,0.00,CLR,FEW,0.00,WeatherDisplay:10.37,2013-02-02 01:58:00,
2013-02-01 21:03:00,36.3,-2.1,30.33,North,0,0.0,0.0,19,0.00,CLR,FEW,0.00,WeatherDisplay:10.37,2013-02-02 02:03:00,
2013-02-01 21:08:00,36.3,-2.1,30.33,North,0,0.0,0.0,19,0.00,CLR,FEW,0.00,WeatherDisplay:10.37,2013-02-02 02:08:00,
2013-02-01 21:13:00,36.5,-1.9,30.33,North,0,0.0,0.0,19,0.00,CLR,FEW,0.00,WeatherDisplay:10.37,2013-02-02 02:13:00,
2013-02-01 21:18:00,36.5,-1.9,30.33,North,0,0.0,0.0,19,0.00,CLR,FEW,0.00,WeatherDisplay:10.37,2013-02-02 02:18:00,
2013-02-01 21:23:00,36.5,-1.9,30.33,North,0,0.0,0.0,19,0.00,CLR,FEW,0.00,WeatherDisplay:10.37,2013-02-02 02:23:00,
2013-02-01 21:28:00,36.7,-1.8,30.33,North,0,0.0,0.0,19,0.00,CLR,FEW,0.00,WeatherDisplay:10.37,2013-02-02 02:28:00,
2013-02-01 21:33:00,36.7,-1.8,30.33,North,0,0.0,0.0,19,0.00,CLR,FEW,0.00,WeatherDisplay:10.37,2013-02-02 02:33:00,
2013-02-01 21:39:00,36.7,-1.8,30.33,North,0,0.0,0.0,19,0.00,CLR,FEW,0.00,WeatherDisplay:10.37,2013-02-02 02:39:00,
2013-02-01 21:44:00,36.9,-1.6,30.36,North,0,0.0,0.0,19,0.00,CLR,FEW,0.00,WeatherDisplay:10.37,2013-02-02 02:44:00,
2013-02-01 21:49:00,36.9,-1.6,30.36,North,0,0.0,0.0,19,0.00,CLR,FEW,0.00,WeatherDisplay:10.37,2013-02-02 02:49:00,
2013-02-01 21:54:00,37.0,-1.5,30.36,North,0,0.0,0.0,19,0.00,CLR,FEW,0.00,WeatherDisplay:10.37,2013-02-02 02:54:00,
2013-02-01 21:59:00,37.0,-1.5,30.36,North,0,0.0,0.0,19,0.00,CLR,FEW,0.00,WeatherDisplay:10.37,2013-02-02 02:59:00,
2013-02-01 22:04:00,36.9,-1.6,30.36,North,0,0.0,0.0,19,0.00,CLR,FEW,0.00,WeatherDisplay:10.37,2013-02-02 03:04:00,
2013-02-01 22:09:00,36.7,-1.8,30.36,North,0,0.0,0.0,19,0.00,CLR,FEW,0.00,WeatherDisplay:10.37,2013-02-02 03:09:00,
2013-02-01 22:14:00,36.7,-1.8,30.36,North,0,0.0,0.0,19,0.00,CLR,FEW,0.00,WeatherDisplay:10.37,2013-02-02 03:14:00,
2013-02-01 22:19:00,36.9,-1.6,30.36,North,0,0.0,0.0,19,0.00,CLR,FEW,0.00,WeatherDisplay:10.37,2013-02-02 03:19:00,
2013-02-01 22:24:00,36.7,-1.8,30.36,North,0,0.0,0.0,19,0.00,CLR,FEW,0.00,WeatherDisplay:10.37,2013-02-02 03:24:00,
2013-02-01 22:29:00,36.5,-1.9,30.36,North,0,0.0,0.0,19,0.00,CLR,FEW,0.00,WeatherDisplay:10.37,2013-02-02 03:29:00,
2013-02-01 22:34:00,36.3,-2.1,30.36,North,0,0.0,0.0,19,0.00,CLR,FEW,0.00,WeatherDisplay:10.37,2013-02-02 03:34:00,
2013-02-01 22:39:00,36.1,-2.2,30.36,North,0,0.0,0.0,19,0.00,CLR,FEW,0.00,WeatherDisplay:10.37,2013-02-02 03:39:00,
2013-02-01 22:44:00,35.8,-2.5,30.36,North,0,0.0,0.0,19,0.00,CLR,FEW,0.00,WeatherDisplay:10.37,2013-02-02 03:44:00,
2013-02-01 22:49:00,35.6,-2.7,30.36,North,0,0.0,0.0,19,0.00,CLR,FEW,0.00,WeatherDisplay:10.37,2013-02-02 03:49:00,
2013-02-01 22:54:00,35.4,-1.8,30.36,North,0,0.0,0.0,20,0.00,CLR,FEW,0.00,WeatherDisplay:10.37,2013-02-02 03:54:00,
2013-02-01 22:59:00,35.1,-2.1,30.36,North,0,0.0,0.0,20,0.00,CLR,FEW,0.00,WeatherDisplay:10.37,2013-02-02 03:59:00,
2013-02-01 23:04:00,34.9,-2.2,30.36,North,0,0.0,0.0,20,0.00,CLR,FEW,0.00,WeatherDisplay:10.37,2013-02-02 04:04:00,
2013-02-01 23:09:00,34.7,-2.4,30.36,North,0,0.0,0.0,20,0.00,CLR,FEW,0.00,WeatherDisplay:10.37,2013-02-02 04:09:00,
2013-02-01 23:14:00,34.5,-2.5,30.36,North,0,0.0,0.0,20,0.00,CLR,FEW,0.00,WeatherDisplay:10.37,2013-02-02 04:14:00,
2013-02-01 23:19:00,34.5,-2.5,30.36,North,0,0.0,0.0,20,0.00,CLR,FEW,0.00,WeatherDisplay:10.37,2013-02-02 04:19:00,
2013-02-01 23:24:00,34.3,-2.7,30.36,North,0,0.0,0.0,20,0.00,CLR,FEW,0.00,WeatherDisplay:10.37,2013-02-02 04:24:00,
2013-02-01 23:29:00,34.5,-2.5,30.36,North,0,0.0,0.0,20,0.00,CLR,FEW,0.00,WeatherDisplay:10.37,2013-02-02 04:29:00,
2013-02-01 23:34:00,34.3,-2.7,30.36,North,0,0.0,0.0,20,0.00,CLR,FEW,0.00,WeatherDisplay:10.37,2013-02-02 04:34:00,
2013-02-01 23:39:00,34.2,-2.8,30.36,North,0,0.0,0.0,20,0.00,CLR,FEW,0.00,WeatherDisplay:10.37,2013-02-02 04:39:00,
2013-02-01 23:44:00,34.2,-2.8,30.36,North,0,0.0,0.0,20,0.00,CLR,FEW,0.00,WeatherDisplay:10.37,2013-02-02 04:44:00,
2013-02-01 23:49:00,34.3,-2.7,30.36,North,0,0.0,0.0,20,0.00,CLR,FEW,0.00,WeatherDisplay:10.37,2013-02-02 04:49:00,
2013-02-01 23:54:00,34.5,-2.5,30.36,North,0,0.0,0.0,20,0.00,CLR,FEW,0.00,WeatherDisplay:10.37,2013-02-02 04:54:00,
2013-02-01 23:59:00,34.5,-2.5,30.36,North,0,0.0,0.0,20,0.00,CLR,FEW,0.00,WeatherDisplay:10.37,2013-02-02 04:59:00,